| time (UTC) | temp F | wind direction | speed knots | gust knots | rain 1hr in | rain 24hr in | rain mn in | humidity % | barometer mb |
| 20260906064036 | 80 | 10 | 0.0 | 173.8 | 0.00 | 0.00 | 0.00 | 55 | 124.8 |
| 20260906063536 | 80 | 1 | 0.0 | 173.8 | 0.00 | 0.00 | 0.00 | 54 | 124.7 |
| 20260906063035 | 80 | 349 | 0.0 | 173.8 | 0.00 | 0.00 | 0.00 | 54 | 124.5 |
| 20260906062534 | 79 | 339 | 0.0 | 173.8 | 0.00 | 0.00 | 0.00 | 52 | 124.2 |
| 20260906062033 | 79 | 332 | 0.0 | 173.8 | 0.00 | 0.00 | 0.00 | 54 | 124.0 |
| 20260906061532 | 78 | 324 | 0.0 | 173.8 | 0.00 | 0.00 | 0.00 | 54 | 123.9 |
| 20260906061032 | 78 | 314 | 0.0 | 173.8 | 0.00 | 0.00 | 0.00 | 55 | 123.6 |
| 20260906060531 | 77 | 306 | 0.0 | 173.8 | 0.00 | 0.00 | 0.00 | 56 | 123.4 |
| 20260906060030 | 76 | 297 | 0.0 | 173.8 | 0.00 | 0.00 | 0.00 | 57 | 123.2 |
| 20260906055530 | 75 | 285 | 0.0 | 173.8 | 0.00 | 0.00 | 0.00 | 61 | 123.0 |
| 20260906055029 | 74 | 270 | 0.0 | 173.8 | 0.00 | 0.00 | 0.00 | 65 | 122.7 |
| 20260906054529 | 74 | 253 | 0.0 | 173.8 | 0.00 | 0.00 | 0.00 | 68 | 122.3 |
| 20260906054028 | 73 | 237 | 0.0 | 173.8 | 0.00 | 0.00 | 0.00 | 69 | 121.8 |
| 20260906053527 | 73 | 224 | 0.0 | 173.8 | 0.00 | 0.00 | 0.00 | 69 | 121.4 |
| 20260906053027 | 72 | 216 | 0.0 | 173.8 | 0.00 | 0.00 | 0.00 | 70 | 121.1 |
| 20260906052526 | 72 | 216 | 0.0 | 173.8 | 0.00 | 0.00 | 0.00 | 72 | 121.1 |
| 20260906052026 | 72 | 217 | 0.0 | 173.8 | 0.00 | 0.00 | 0.00 | 70 | 121.1 |
| 20260906051525 | 72 | 220 | 0.0 | 173.8 | 0.00 | 0.00 | 0.00 | 70 | 121.1 |
| 20260906045953 | 71 | 227 | 0.0 | 173.8 | 0.00 | 0.00 | 0.00 | 68 | 121.2 |
| 20260906045452 | 70 | 234 | 0.0 | 173.8 | 0.00 | 0.00 | 0.00 | 69 | 121.3 |
| 20260906044951 | 70 | 235 | 0.0 | 173.8 | 0.00 | 0.00 | 0.00 | 69 | 121.4 |
| 20260906043934 | 69 | 227 | 0.0 | 173.8 | 0.00 | 0.00 | 0.00 | 64 | 121.2 |
| 20260906043433 | 69 | 225 | 0.0 | 173.8 | 0.00 | 0.00 | 0.00 | 64 | 121.1 |
| 20260906042932 | 69 | 225 | 0.0 | 173.8 | 0.00 | 0.00 | 0.00 | 65 | 121.1 |
| 20260906042431 | 69 | 225 | 0.0 | 173.8 | 0.00 | 0.00 | 0.00 | 66 | 121.1 |
| 20260906041930 | 69 | 226 | 0.0 | 173.8 | 0.00 | 0.00 | 0.00 | 66 | 121.1 |
| 20260906041429 | 69 | 226 | 0.0 | 173.8 | 0.00 | 0.00 | 0.00 | 68 | 121.1 |
| 20260906040412 | 70 | 228 | 0.0 | 173.8 | 0.00 | 0.00 | 0.00 | 70 | 121.2 |
| 20260906035911 | 70 | 229 | 0.0 | 173.8 | 0.00 | 0.00 | 0.00 | 69 | 121.2 |
| 20260906035410 | 70 | 230 | 0.0 | 173.8 | 0.00 | 0.00 | 0.00 | 69 | 121.2 |
| 20260906034909 | 70 | 231 | 0.0 | 173.8 | 0.00 | 0.00 | 0.00 | 68 | 121.2 |
| 20260906034408 | 70 | 232 | 0.0 | 173.8 | 0.00 | 0.00 | 0.00 | 67 | 121.3 |
| 20260906033352 | 70 | 233 | 0.0 | 173.8 | 0.00 | 0.00 | 0.00 | 62 | 121.2 |
| 20260906032851 | 70 | 234 | 0.0 | 173.8 | 0.00 | 0.00 | 0.00 | 61 | 121.3 |
| 20260906032350 | 70 | 237 | 0.0 | 173.8 | 0.00 | 0.00 | 0.00 | 60 | 121.3 |
| 20260906031333 | 70 | 249 | 0.0 | 173.8 | 0.00 | 0.00 | 0.00 | 60 | 121.5 |
| 20260906030832 | 70 | 255 | 0.0 | 173.8 | 0.00 | 0.00 | 0.00 | 60 | 121.7 |
| 20260906030331 | 71 | 260 | 0.0 | 173.8 | 0.00 | 0.00 | 0.00 | 59 | 121.8 |
| 20260906025830 | 71 | 263 | 0.0 | 173.8 | 0.00 | 0.00 | 0.00 | 58 | 121.9 |
| 20260906025329 | 71 | 265 | 0.0 | 173.8 | 0.00 | 0.00 | 0.00 | 56 | 122.0 |
| 20260906024828 | 72 | 266 | 0.0 | 173.8 | 0.00 | 0.00 | 0.00 | 55 | 122.0 |
| 20260906024327 | 72 | 269 | 0.0 | 173.8 | 0.00 | 0.00 | 0.00 | 54 | 122.0 |
| 20260906023826 | 72 | 272 | 0.0 | 173.8 | 0.00 | 0.00 | 0.00 | 54 | 122.0 |
| 20260906023325 | 72 | 275 | 0.0 | 173.8 | 0.00 | 0.00 | 0.00 | 54 | 122.1 |
| 20260906022824 | 73 | 277 | 0.0 | 173.8 | 0.00 | 0.00 | 0.00 | 54 | 122.3 |
| 20260906021808 | 73 | 283 | 0.0 | 173.8 | 0.00 | 0.00 | 0.00 | 52 | 122.3 |
| 20260906021308 | 73 | 285 | 0.0 | 173.8 | 0.00 | 0.00 | 0.00 | 52 | 122.4 |
| 20260906020807 | 74 | 287 | 0.0 | 173.8 | 0.00 | 0.00 | 0.00 | 52 | 122.4 |
| 20260906020306 | 74 | 289 | 0.0 | 173.8 | 0.00 | 0.00 | 0.00 | 51 | 122.5 |
| 20260906015805 | 74 | 287 | 0.0 | 173.8 | 0.00 | 0.00 | 0.00 | 49 | 122.4 |
| 20260906015306 | 74 | 285 | 0.0 | 173.8 | 0.00 | 0.00 | 0.00 | 48 | 122.4 |
| 20260906014803 | 74 | 287 | 0.0 | 173.8 | 0.00 | 0.00 | 0.00 | 46 | 122.4 |
| 20260906014303 | 73 | 291 | 0.0 | 173.8 | 0.00 | 0.00 | 0.00 | 46 | 122.5 |
| 20260906012730 | 74 | 300 | 0.0 | 173.8 | 0.00 | 0.00 | 0.00 | 47 | 122.7 |
| 20260906012229 | 74 | 302 | 0.0 | 173.8 | 0.00 | 0.00 | 0.00 | 46 | 122.8 |
| 20260906011728 | 75 | 303 | 0.0 | 173.8 | 0.00 | 0.00 | 0.00 | 46 | 122.8 |
| 20260906010155 | 75 | 311 | 0.0 | 173.8 | 0.00 | 0.00 | 0.00 | 45 | 122.9 |
| 20260906005654 | 75 | 312 | 0.0 | 173.8 | 0.00 | 0.00 | 0.00 | 45 | 122.9 |
| 20260906004637 | 76 | 314 | 0.0 | 173.8 | 0.00 | 0.00 | 0.00 | 44 | 122.9 |
| 20260906004136 | 76 | 316 | 0.0 | 173.8 | 0.00 | 0.00 | 0.00 | 44 | 123.0 |
| 20260906003634 | 76 | 316 | 0.0 | 173.8 | 0.00 | 0.00 | 0.00 | 44 | 123.0 |
| 20260906003134 | 76 | 316 | 0.0 | 173.8 | 0.00 | 0.00 | 0.00 | 44 | 123.0 |
| 20260906002633 | 76 | 317 | 0.0 | 173.8 | 0.00 | 0.00 | 0.00 | 43 | 123.0 |
| 20260906002132 | 76 | 317 | 0.0 | 173.8 | 0.00 | 0.00 | 0.00 | 43 | 123.0 |
| 20260906001115 | 76 | 316 | 0.0 | 173.8 | 0.00 | 0.00 | 0.00 | 43 | 123.0 |
| 20260906000058 | 76 | 314 | 0.0 | 173.8 | 0.00 | 0.00 | 0.00 | 43 | 123.0 |
| 20260905235557 | 76 | 314 | 0.0 | 173.8 | 0.00 | 0.00 | 0.00 | 43 | 122.9 |
| 20260905235056 | 76 | 315 | 0.0 | 173.8 | 0.00 | 0.00 | 0.00 | 44 | 122.9 |
| 20260905234555 | 76 | 316 | 0.0 | 173.8 | 0.00 | 0.00 | 0.00 | 44 | 122.9 |
| 20260905234054 | 76 | 316 | 0.0 | 173.8 | 0.00 | 0.00 | 0.00 | 43 | 122.9 |
| 20260905233036 | 76 | 318 | 0.0 | 173.8 | 0.00 | 0.00 | 0.00 | 44 | 123.0 |
| 20260905232020 | 76 | 319 | 0.0 | 173.8 | 0.00 | 0.00 | 0.00 | 44 | 123.0 |
| 20260905231519 | 76 | 321 | 0.0 | 173.8 | 0.00 | 0.00 | 0.00 | 45 | 123.1 |
| 20260905231018 | 76 | 323 | 0.0 | 173.8 | 0.00 | 0.00 | 0.00 | 44 | 123.1 |
| 20260905230517 | 76 | 325 | 0.0 | 173.8 | 0.00 | 0.00 | 0.00 | 45 | 123.2 |
| 20260905225500 | 76 | 328 | 0.0 | 173.8 | 0.00 | 0.00 | 0.00 | 44 | 123.2 |
| 20260905224443 | 77 | 331 | 0.0 | 173.8 | 0.00 | 0.00 | 0.00 | 44 | 123.3 |
| 20260905223942 | 77 | 331 | 0.0 | 173.8 | 0.00 | 0.00 | 0.00 | 43 | 123.3 |
| 20260905222926 | 77 | 332 | 0.0 | 173.8 | 0.00 | 0.00 | 0.00 | 43 | 123.3 |
| 20260905222425 | 78 | 333 | 0.0 | 173.8 | 0.00 | 0.00 | 0.00 | 43 | 123.2 |
| 20260905221924 | 78 | 332 | 0.0 | 173.8 | 0.00 | 0.00 | 0.00 | 43 | 123.3 |
| 20260905221423 | 79 | 332 | 0.0 | 173.8 | 0.00 | 0.00 | 0.00 | 43 | 123.2 |
| 20260905220921 | 79 | 331 | 0.0 | 173.8 | 0.00 | 0.00 | 0.00 | 42 | 123.2 |
| 20260905220420 | 79 | 330 | 0.0 | 173.8 | 0.00 | 0.00 | 0.00 | 42 | 123.2 |
| 20260905215404 | 78 | 331 | 0.0 | 173.8 | 0.00 | 0.00 | 0.00 | 42 | 123.2 |
| 20260905214904 | 78 | 333 | 0.0 | 173.8 | 0.00 | 0.00 | 0.00 | 42 | 123.2 |
| 20260905214404 | 78 | 335 | 0.0 | 173.8 | 0.00 | 0.00 | 0.00 | 43 | 123.2 |
| 20260905213903 | 78 | 335 | 0.0 | 173.8 | 0.00 | 0.00 | 0.00 | 43 | 123.3 |
| 20260905213402 | 78 | 334 | 0.0 | 173.8 | 0.00 | 0.00 | 0.00 | 43 | 123.3 |
| 20260905212901 | 79 | 332 | 0.0 | 173.8 | 0.00 | 0.00 | 0.00 | 43 | 123.2 |
| 20260905212401 | 79 | 332 | 0.0 | 173.8 | 0.00 | 0.00 | 0.00 | 42 | 123.2 |
| 20260905211859 | 79 | 332 | 0.0 | 173.8 | 0.00 | 0.00 | 0.00 | 41 | 123.3 |
| 20260905205810 | 79 | 335 | 0.0 | 173.8 | 0.00 | 0.00 | 0.00 | 42 | 123.3 |
| 20260905205309 | 79 | 336 | 0.0 | 173.8 | 0.00 | 0.00 | 0.00 | 42 | 123.3 |
| 20260905204252 | 79 | 336 | 0.0 | 173.8 | 0.00 | 0.00 | 0.00 | 42 | 123.3 |
| 20260905203751 | 79 | 335 | 0.0 | 173.8 | 0.00 | 0.00 | 0.00 | 42 | 123.3 |
| 20260905203251 | 79 | 333 | 0.0 | 173.8 | 0.00 | 0.00 | 0.00 | 42 | 123.2 |
| 20260905202750 | 79 | 333 | 0.0 | 173.8 | 0.00 | 0.00 | 0.00 | 42 | 123.2 |
| 20260905202248 | 79 | 332 | 0.0 | 173.8 | 0.00 | 0.00 | 0.00 | 42 | 123.2 |
| 20260905201231 | 79 | 330 | 0.0 | 173.8 | 0.00 | 0.00 | 0.00 | 42 | 123.2 |
| 20260905200731 | 79 | 331 | 0.0 | 173.8 | 0.00 | 0.00 | 0.00 | 42 | 123.2 |
| 20260905200229 | 79 | 332 | 0.0 | 173.8 | 0.00 | 0.00 | 0.00 | 42 | 123.2 |
| 20260905195729 | 79 | 332 | 0.0 | 173.8 | 0.00 | 0.00 | 0.00 | 43 | 123.3 |
| 20260905195228 | 79 | 332 | 0.0 | 173.8 | 0.00 | 0.00 | 0.00 | 43 | 123.3 |
| 20260905194727 | 79 | 333 | 0.0 | 173.8 | 0.00 | 0.00 | 0.00 | 43 | 123.3 |
| 20260905194225 | 79 | 333 | 0.0 | 173.8 | 0.00 | 0.00 | 0.00 | 44 | 123.3 |
| 20260905193725 | 79 | 334 | 0.0 | 173.8 | 0.00 | 0.00 | 0.00 | 44 | 123.3 |
| 20260905193224 | 79 | 335 | 0.0 | 173.8 | 0.00 | 0.00 | 0.00 | 45 | 123.3 |
| 20260905192723 | 79 | 336 | 0.0 | 173.8 | 0.00 | 0.00 | 0.00 | 45 | 123.3 |
| 20260905192222 | 79 | 337 | 0.0 | 173.8 | 0.00 | 0.00 | 0.00 | 46 | 123.4 |
| 20260905191722 | 79 | 340 | 0.0 | 173.8 | 0.00 | 0.00 | 0.00 | 47 | 123.4 |
| 20260905191221 | 79 | 341 | 0.0 | 173.8 | 0.00 | 0.00 | 0.00 | 48 | 123.4 |
| 20260905190204 | 79 | 344 | 0.0 | 173.8 | 0.00 | 0.00 | 0.00 | 48 | 123.4 |
| 20260905185704 | 79 | 345 | 0.0 | 173.8 | 0.00 | 0.00 | 0.00 | 48 | 123.5 |
| 20260905184647 | 79 | 346 | 0.0 | 173.8 | 0.00 | 0.00 | 0.00 | 47 | 123.5 |
| 20260905184146 | 79 | 345 | 0.0 | 173.8 | 0.00 | 0.00 | 0.00 | 47 | 123.5 |
| 20260905183645 | 79 | 346 | 0.0 | 173.8 | 0.00 | 0.00 | 0.00 | 46 | 123.6 |
| 20260905183144 | 79 | 347 | 0.0 | 173.8 | 0.00 | 0.00 | 0.00 | 45 | 123.5 |
| 20260905182127 | 80 | 353 | 0.0 | 173.8 | 0.00 | 0.00 | 0.00 | 45 | 123.7 |
| 20260905181626 | 80 | 356 | 0.0 | 173.8 | 0.00 | 0.00 | 0.00 | 45 | 123.8 |
| 20260905181125 | 80 | 0 | 0.0 | 173.8 | 0.00 | 0.00 | 0.00 | 45 | 123.9 |
| 20260905180624 | 80 | 4 | 0.0 | 173.8 | 0.00 | 0.00 | 0.00 | 46 | 124.0 |
| 20260905180124 | 80 | 9 | 0.0 | 173.8 | 0.00 | 0.00 | 0.00 | 47 | 124.0 |
| 20260905175623 | 80 | 13 | 0.0 | 173.8 | 0.00 | 0.00 | 0.00 | 47 | 124.1 |
| 20260905175122 | 80 | 16 | 0.0 | 173.8 | 0.00 | 0.00 | 0.00 | 47 | 124.1 |
| 20260905174621 | 80 | 19 | 0.0 | 173.8 | 0.00 | 0.00 | 0.00 | 46 | 124.2 |
| 20260905174120 | 81 | 25 | 0.0 | 173.8 | 0.00 | 0.00 | 0.00 | 45 | 124.3 |
| 20260905173619 | 81 | 32 | 0.0 | 173.8 | 0.00 | 0.00 | 0.00 | 44 | 124.5 |
| 20260905172602 | 81 | 43 | 0.0 | 173.8 | 0.00 | 0.00 | 0.00 | 43 | 124.7 |
| 20260905172102 | 82 | 48 | 0.0 | 173.8 | 0.00 | 0.00 | 0.00 | 44 | 124.8 |
| 20260905171601 | 82 | 55 | 0.0 | 173.8 | 0.00 | 0.00 | 0.00 | 44 | 125.0 |
| 20260905171100 | 83 | 62 | 0.0 | 173.8 | 0.00 | 0.00 | 0.00 | 43 | 125.1 |
| 20260905165528 | 84 | 84 | 0.0 | 173.8 | 0.00 | 0.00 | 0.00 | 44 | 125.6 |
| 20260905165027 | 84 | 94 | 0.0 | 173.8 | 0.00 | 0.00 | 0.00 | 43 | 125.8 |
| 20260905164526 | 85 | 107 | 0.0 | 173.8 | 0.00 | 0.00 | 0.00 | 41 | 126.1 |
| 20260905164025 | 85 | 128 | 0.0 | 173.8 | 0.00 | 0.00 | 0.00 | 39 | 126.4 |
| 20260905163525 | 86 | 146 | 0.0 | 173.8 | 0.00 | 0.00 | 0.00 | 39 | 126.7 |
| 20260905163025 | 87 | 154 | 0.0 | 173.8 | 0.00 | 0.00 | 0.00 | 38 | 126.9 |
| 20260905162525 | 87 | 158 | 0.0 | 173.8 | 0.00 | 0.00 | 0.00 | 37 | 127.0 |
| 20260905161509 | 88 | 164 | 0.0 | 173.8 | 0.00 | 0.00 | 0.00 | 37 | 127.2 |
| 20260905161009 | 88 | 170 | 0.0 | 173.8 | 0.00 | 0.00 | 0.00 | 37 | 127.3 |
| 20260905160508 | 88 | 172 | 0.0 | 173.8 | 0.00 | 0.00 | 0.00 | 36 | 127.3 |
| 20260905160007 | 89 | 173 | 0.0 | 173.8 | 0.00 | 0.00 | 0.00 | 36 | 127.4 |
| 20260905155507 | 89 | 176 | 0.0 | 173.8 | 0.00 | 0.00 | 0.00 | 37 | 127.5 |
| 20260905155007 | 89 | 182 | 0.0 | 173.8 | 0.00 | 0.00 | 0.00 | 37 | 127.7 |
| 20260905154507 | 89 | 194 | 0.0 | 173.8 | 0.00 | 0.00 | 0.00 | 38 | 127.9 |
| 20260905154006 | 89 | 208 | 0.0 | 173.8 | 0.00 | 0.00 | 0.00 | 41 | 128.1 |
| 20260905153505 | 90 | 216 | 0.0 | 173.8 | 0.00 | 0.00 | 0.00 | 38 | 128.3 |
| 20260905153005 | 90 | 221 | 0.0 | 173.8 | 0.00 | 0.00 | 0.00 | 38 | 128.4 |
| 20260905151948 | 90 | 220 | 0.0 | 173.8 | 0.00 | 0.00 | 0.00 | 37 | 128.3 |
| 20260905150931 | 90 | 227 | 0.0 | 173.8 | 0.00 | 0.00 | 0.00 | 35 | 128.5 |
| 20260905150430 | 91 | 231 | 0.0 | 173.8 | 0.00 | 0.00 | 0.00 | 35 | 128.6 |
| 20260905145413 | 91 | 228 | 0.0 | 173.8 | 0.00 | 0.00 | 0.00 | 33 | 128.6 |
| 20260905144913 | 91 | 227 | 0.0 | 173.8 | 0.00 | 0.00 | 0.00 | 33 | 128.5 |
| 20260905144412 | 91 | 228 | 0.0 | 173.8 | 0.00 | 0.00 | 0.00 | 33 | 128.6 |
| 20260905143911 | 91 | 228 | 0.0 | 173.8 | 0.00 | 0.00 | 0.00 | 34 | 128.6 |
| 20260905142855 | 91 | 230 | 0.0 | 173.8 | 0.00 | 0.00 | 0.00 | 36 | 128.7 |
| 20260905142355 | 91 | 228 | 0.0 | 173.8 | 0.00 | 0.00 | 0.00 | 35 | 128.6 |
| 20260905141853 | 91 | 228 | 0.0 | 173.8 | 0.00 | 0.00 | 0.00 | 36 | 128.6 |
| 20260905141353 | 91 | 230 | 0.0 | 173.8 | 0.00 | 0.00 | 0.00 | 35 | 128.7 |
| 20260905140853 | 92 | 239 | 0.0 | 173.8 | 0.00 | 0.00 | 0.00 | 35 | 128.8 |
| 20260905140352 | 92 | 246 | 0.0 | 173.8 | 0.00 | 0.00 | 0.00 | 34 | 128.9 |
| 20260905135851 | 92 | 246 | 0.0 | 173.8 | 0.00 | 0.00 | 0.00 | 32 | 128.9 |
| 20260905135350 | 93 | 244 | 0.0 | 173.8 | 0.00 | 0.00 | 0.00 | 32 | 128.9 |
| 20260905134333 | 93 | 244 | 0.0 | 173.8 | 0.00 | 0.00 | 0.00 | 32 | 128.9 |
| 20260905133832 | 93 | 245 | 0.0 | 173.8 | 0.00 | 0.00 | 0.00 | 31 | 128.9 |
| 20260905133331 | 93 | 243 | 0.0 | 173.8 | 0.00 | 0.00 | 0.00 | 30 | 128.9 |
| 20260905132830 | 93 | 238 | 0.0 | 173.8 | 0.00 | 0.00 | 0.00 | 30 | 128.8 |
| 20260905132328 | 92 | 234 | 0.0 | 173.8 | 0.00 | 0.00 | 0.00 | 30 | 128.8 |
| 20260905131827 | 92 | 236 | 0.0 | 173.8 | 0.00 | 0.00 | 0.00 | 30 | 128.8 |
| 20260905131326 | 92 | 242 | 0.0 | 173.8 | 0.00 | 0.00 | 0.00 | 31 | 128.9 |
| 20260905130825 | 92 | 241 | 0.0 | 173.8 | 0.00 | 0.00 | 0.00 | 31 | 128.9 |
| 20260905125809 | 92 | 236 | 0.0 | 173.8 | 0.00 | 0.00 | 0.00 | 31 | 128.9 |
| 20260905125308 | 92 | 233 | 0.0 | 173.8 | 0.00 | 0.00 | 0.00 | 31 | 128.8 |
| 20260905124807 | 92 | 228 | 0.0 | 173.8 | 0.00 | 0.00 | 0.00 | 30 | 128.7 |
| 20260905124306 | 92 | 223 | 0.0 | 173.8 | 0.00 | 0.00 | 0.00 | 30 | 128.6 |
| 20260905123805 | 91 | 220 | 0.0 | 173.8 | 0.00 | 0.00 | 0.00 | 30 | 128.6 |
| 20260905123304 | 91 | 222 | 0.0 | 173.8 | 0.00 | 0.00 | 0.00 | 30 | 128.6 |
| 20260905122803 | 91 | 217 | 0.0 | 173.8 | 0.00 | 0.00 | 0.00 | 31 | 128.5 |
| 20260905120715 | 91 | 219 | 0.0 | 173.8 | 0.00 | 0.00 | 0.00 | 32 | 128.6 |
| 20260905120215 | 91 | 219 | 0.0 | 173.8 | 0.00 | 0.00 | 0.00 | 32 | 128.6 |
| 20260905115714 | 91 | 221 | 0.0 | 173.8 | 0.00 | 0.00 | 0.00 | 34 | 128.7 |
| 20260905114658 | 91 | 225 | 0.0 | 173.8 | 0.00 | 0.00 | 0.00 | 35 | 128.8 |
| 20260905113641 | 92 | 219 | 0.0 | 173.8 | 0.00 | 0.00 | 0.00 | 35 | 128.7 |
| 20260905113140 | 92 | 214 | 0.0 | 173.8 | 0.00 | 0.00 | 0.00 | 35 | 128.6 |
| 20260905112639 | 91 | 209 | 0.0 | 173.8 | 0.00 | 0.00 | 0.00 | 35 | 128.5 |
| 20260905111622 | 91 | 203 | 0.0 | 173.8 | 0.00 | 0.00 | 0.00 | 32 | 128.3 |
| 20260905111121 | 91 | 202 | 0.0 | 173.8 | 0.00 | 0.00 | 0.00 | 34 | 128.3 |
| 20260905110621 | 91 | 197 | 0.0 | 173.8 | 0.00 | 0.00 | 0.00 | 34 | 128.3 |
| 20260905110120 | 91 | 192 | 0.0 | 173.8 | 0.00 | 0.00 | 0.00 | 33 | 128.1 |
| 20260905105619 | 90 | 191 | 0.0 | 173.8 | 0.00 | 0.00 | 0.00 | 36 | 128.2 |
| 20260905105118 | 90 | 191 | 0.0 | 173.8 | 0.00 | 0.00 | 0.00 | 36 | 128.1 |
| 20260905104616 | 90 | 189 | 0.0 | 173.8 | 0.00 | 0.00 | 0.00 | 35 | 128.1 |
| 20260905104115 | 90 | 191 | 0.0 | 173.8 | 0.00 | 0.00 | 0.00 | 37 | 128.1 |
| 20260905103615 | 90 | 189 | 0.0 | 173.8 | 0.00 | 0.00 | 0.00 | 35 | 128.2 |
| 20260905103113 | 90 | 185 | 0.0 | 173.8 | 0.00 | 0.00 | 0.00 | 35 | 128.1 |
| 20260905102612 | 90 | 181 | 0.0 | 173.8 | 0.00 | 0.00 | 0.00 | 35 | 128.0 |
| 20260905102112 | 89 | 176 | 0.0 | 173.8 | 0.00 | 0.00 | 0.00 | 36 | 127.9 |
| 20260905101611 | 89 | 173 | 0.0 | 173.8 | 0.00 | 0.00 | 0.00 | 37 | 127.9 |
| 20260905101110 | 89 | 170 | 0.0 | 173.8 | 0.00 | 0.00 | 0.00 | 35 | 127.8 |
| 20260905100610 | 88 | 167 | 0.0 | 173.8 | 0.00 | 0.00 | 0.00 | 37 | 127.8 |
| 20260905100109 | 88 | 160 | 0.0 | 173.8 | 0.00 | 0.00 | 0.00 | 37 | 127.7 |
| 20260905095609 | 88 | 153 | 0.0 | 173.8 | 0.00 | 0.00 | 0.00 | 39 | 127.5 |
| 20260905095109 | 87 | 148 | 0.0 | 173.8 | 0.00 | 0.00 | 0.00 | 40 | 127.4 |
| 20260905094608 | 87 | 144 | 0.0 | 173.8 | 0.00 | 0.00 | 0.00 | 40 | 127.3 |
| 20260905093551 | 87 | 136 | 0.0 | 173.8 | 0.00 | 0.00 | 0.00 | 40 | 127.2 |
| 20260905093050 | 87 | 133 | 0.0 | 173.8 | 0.00 | 0.00 | 0.00 | 41 | 127.2 |
| 20260905092549 | 87 | 129 | 0.0 | 173.8 | 0.00 | 0.00 | 0.00 | 42 | 127.1 |
| 20260905092048 | 86 | 128 | 0.0 | 173.8 | 0.00 | 0.00 | 0.00 | 42 | 127.1 |
| 20260905091032 | 86 | 126 | 0.0 | 173.8 | 0.00 | 0.00 | 0.00 | 44 | 127.1 |
| 20260905090531 | 86 | 126 | 0.0 | 173.8 | 0.00 | 0.00 | 0.00 | 45 | 127.2 |
| 20260905090031 | 86 | 126 | 0.0 | 173.8 | 0.00 | 0.00 | 0.00 | 46 | 127.2 |
| 20260905085530 | 86 | 125 | 0.0 | 173.8 | 0.00 | 0.00 | 0.00 | 46 | 127.2 |
| 20260905085029 | 85 | 123 | 0.0 | 173.8 | 0.00 | 0.00 | 0.00 | 48 | 127.2 |
| 20260905084528 | 85 | 119 | 0.0 | 173.8 | 0.00 | 0.00 | 0.00 | 49 | 127.2 |
| 20260905084027 | 85 | 118 | 0.0 | 173.8 | 0.00 | 0.00 | 0.00 | 50 | 127.2 |
| 20260905083527 | 85 | 112 | 0.0 | 173.8 | 0.00 | 0.00 | 0.00 | 49 | 127.2 |
| 20260905082510 | 84 | 102 | 0.0 | 173.8 | 0.00 | 0.00 | 0.00 | 53 | 126.9 |
| 20260905082010 | 84 | 100 | 0.0 | 173.8 | 0.00 | 0.00 | 0.00 | 52 | 127.0 |
| 20260905081510 | 84 | 96 | 0.0 | 173.8 | 0.00 | 0.00 | 0.00 | 53 | 126.9 |
| 20260905081010 | 83 | 93 | 0.0 | 173.8 | 0.00 | 0.00 | 0.00 | 54 | 126.9 |
| 20260905080509 | 83 | 86 | 0.0 | 173.8 | 0.00 | 0.00 | 0.00 | 54 | 126.8 |
| 20260905080009 | 82 | 82 | 0.0 | 173.8 | 0.00 | 0.00 | 0.00 | 55 | 126.7 |
| 20260905074953 | 82 | 72 | 0.0 | 173.8 | 0.00 | 0.00 | 0.00 | 57 | 126.5 |
| 20260905074452 | 82 | 71 | 0.0 | 173.8 | 0.00 | 0.00 | 0.00 | 58 | 126.5 |
| 20260905073951 | 81 | 69 | 0.0 | 173.8 | 0.00 | 0.00 | 0.00 | 59 | 126.5 |
| 20260905073450 | 81 | 64 | 0.0 | 173.8 | 0.00 | 0.00 | 0.00 | 58 | 126.5 |
| 20260905072950 | 81 | 57 | 0.0 | 173.8 | 0.00 | 0.00 | 0.00 | 60 | 126.4 |
| 20260905072450 | 80 | 52 | 0.0 | 173.8 | 0.00 | 0.00 | 0.00 | 62 | 126.2 |
| 20260905071949 | 80 | 49 | 0.0 | 173.8 | 0.00 | 0.00 | 0.00 | 63 | 126.1 |
| 20260905071448 | 80 | 41 | 0.0 | 173.8 | 0.00 | 0.00 | 0.00 | 64 | 125.9 |
| 20260905070947 | 80 | 37 | 0.0 | 173.8 | 0.00 | 0.00 | 0.00 | 64 | 125.8 |
| 20260905070447 | 79 | 34 | 0.0 | 173.8 | 0.00 | 0.00 | 0.00 | 64 | 125.6 |
| 20260905065946 | 79 | 37 | 0.0 | 173.8 | 0.00 | 0.00 | 0.00 | 65 | 125.7 |
| 20260905065445 | 79 | 37 | 0.0 | 173.8 | 0.00 | 0.00 | 0.00 | 67 | 125.7 |